User: anonymous   Login
Location: Saint-Palais-sur-Mer
(45.6429°N, 1.0859°W)
Time: 01:08:44
(UTC+02:00)
Language:

AAUSAT CUBESAT 2 - Orbit

View from above orbital plane
View from above orbital plane
View from above satellite
View from above satellite

Ground track
Ground track

The orbit data is extracted from the following two-line orbital elements,

1 32788U 08021F   24115.85050201  .00038161  00000-0  20547-2 0  9992
2 32788  97.5931  96.0503 0006078  28.5627 331.5936 15.14701882870347
Epoch (UTC): 24 April 2024 20:24:43
Eccentricity: 0.0006078
inclination: 97.5931°
perigee height: 517 km
apogee height: 526 km
right ascension of ascending node: 96.0503°
argument of perigee: 28.5627°
revolutions per day: 15.14701882
mean anomaly at epoch: 331.5936°
orbit number at epoch: 87034

The dashed part of the orbit path shows where the satellite is in the earth's shadow,  

DLR